When you browse on this site, cookies collect data to enhance your experience and personalize the content and advertising you see.
Visit our Privacy Policy to learn more. By continuing to use the site, you agree to this use of cookies and data.
  • In Latvia
  • List of Countries
  • For 7 days
  • Water Temperature
  • Weather Map
  • Weather Widgets
  • user-avatar
    Login

    Hourly Weather Rezekne

    Today, 23 September, Monday

    Time Temperature Precipitation Wind Pressure Humidity
    00:00 +1°C° 0 mm 2 mps 750 mmHg 89%
    01:00 +1°C° 0 mm 2 mps 750 mmHg 90%
    02:00 +2°C° 0 mm 1 mps 751 mmHg 90%
    03:00 +2°C° 0 mm 1 mps 751 mmHg 91%
    04:00 +1°C° 0 mm 1 mps 751 mmHg 92%
    05:00 +1°C° 0 mm 1 mps 751 mmHg 92%
    06:00 +1°C° 0 mm 2 mps 751 mmHg 88%
    07:00 +2°C° 0 mm 2 mps 752 mmHg 84%
    08:00 +3°C° 0 mm 2 mps 752 mmHg 79%
    09:00 +5°C° 0 mm 2 mps 752 mmHg 72%
    10:00 +6°C° 0 mm 2 mps 752 mmHg 65%
    11:00 +8°C° 0 mm 3 mps 752 mmHg 57%
    12:00 +9°C° 0 mm 3 mps 752 mmHg 55%
    13:00 +9°C° 0 mm 3 mps 752 mmHg 53%
    14:00 +10°C° 0 mm 3 mps 752 mmHg 51%
    15:00 +9°C° 0 mm 2 mps 752 mmHg 55%
    16:00 +8°C° 0 mm 2 mps 751 mmHg 60%
    17:00 +8°C° 0 mm 2 mps 751 mmHg 64%
    18:00 +8°C° 0 mm 1 mps 751 mmHg 67%
    19:00 +7°C° 0 mm 1 mps 751 mmHg 71%
    20:00 +5°C° 0 mm 1 mps 752 mmHg 74%
    21:00 +5°C° 0 mm 1 mps 751 mmHg 75%
    22:00 +5°C° 0 mm 1 mps 751 mmHg 77%
    23:00 +3°C° 0 mm 0 mps 751 mmHg 78%

    Tomorrow, 24 September, Tuesday

    Time Temperature Precipitation Wind Pressure Humidity
    00:00 +3°C° 0 mm 0 mps 751 mmHg 79%
    01:00 +4°C° 0 mm 1 mps 751 mmHg 80%
    02:00 +3°C° 0 mm 1 mps 752 mmHg 81%
    03:00 +3°C° 0 mm 1 mps 751 mmHg 82%
    04:00 +3°C° 0 mm 1 mps 751 mmHg 83%
    05:00 +3°C° 0 mm 1 mps 751 mmHg 84%
    06:00 +4°C° 0 mm 1 mps 751 mmHg 81%
    07:00 +5°C° 0 mm 1 mps 751 mmHg 79%
    08:00 +5°C° 0 mm 1 mps 751 mmHg 76%
    09:00 +7°C° 0 mm 1 mps 751 mmHg 70%
    10:00 +8°C° 0 mm 1 mps 751 mmHg 64%
    11:00 +10°C° 0 mm 1 mps 751 mmHg 58%
    12:00 +10°C° 0 mm 1 mps 751 mmHg 57%
    13:00 +10°C° 0 mm 1 mps 750 mmHg 55%
    14:00 +11°C° 0 mm 1 mps 750 mmHg 54%
    15:00 +10°C° 0 mm 1 mps 750 mmHg 58%
    16:00 +9°C° 0 mm 0 mps 750 mmHg 61%
    17:00 +8°C° 0 mm 0 mps 750 mmHg 65%
    18:00 +7°C° 0 mm 0 mps 749 mmHg 68%
    19:00 +6°C° 0 mm 1 mps 749 mmHg 71%
    20:00 +5°C° 0 mm 1 mps 749 mmHg 75%
    21:00 +4°C° 0 mm 1 mps 749 mmHg 76%
    22:00 +4°C° 0 mm 1 mps 749 mmHg 77%
    23:00 +4°C° 0 mm 1 mps 750 mmHg 78%

    Day after tomorrow, 25 September, Wednesday

    Time Temperature Precipitation Wind Pressure Humidity
    00:00 +4°C° 0 mm 1 mps 749 mmHg 77%
    01:00 +5°C° 0 mm 1 mps 749 mmHg 75%
    02:00 +5°C° 0 mm 1 mps 749 mmHg 74%
    03:00 +5°C° 0 mm 1 mps 749 mmHg 74%
    04:00 +5°C° 0 mm 1 mps 749 mmHg 74%
    05:00 +5°C° 0 mm 1 mps 749 mmHg 74%
    06:00 +5°C° 0 mm 1 mps 749 mmHg 73%
    07:00 +6°C° 0 mm 1 mps 749 mmHg 72%
    08:00 +5°C° 0 mm 2 mps 749 mmHg 71%
    09:00 +7°C° 0 mm 2 mps 749 mmHg 66%
    10:00 +8°C° 0 mm 2 mps 749 mmHg 61%
    11:00 +10°C° 0 mm 2 mps 749 mmHg 56%
    12:00 +10°C° 0 mm 2 mps 748 mmHg 54%
    13:00 +12°C° 0 mm 2 mps 748 mmHg 52%
    14:00 +12°C° 0 mm 2 mps 748 mmHg 51%
    15:00 +10°C° 0 mm 2 mps 748 mmHg 56%
    16:00 +10°C° 0 mm 2 mps 747 mmHg 61%
    17:00 +10°C° 0 mm 1 mps 747 mmHg 66%
    18:00 +9°C° 0 mm 1 mps 747 mmHg 70%
    19:00 +6°C° 0 mm 2 mps 747 mmHg 73%
    20:00 +5°C° 0 mm 2 mps 748 mmHg 77%
    21:00 +4°C° 0 mm 2 mps 748 mmHg 79%
    22:00 +4°C° 0 mm 2 mps 748 mmHg 80%
    23:00 +3°C° 0 mm 2 mps 748 mmHg 82%

    26 September, Thursday

    Time Temperature Precipitation Wind Pressure Humidity
    00:00 +3°C° 0 mm 2 mps 748 mmHg 82%
    01:00 +3°C° 0 mm 2 mps 748 mmHg 83%
    02:00 +3°C° 0 mm 2 mps 748 mmHg 83%
    03:00 +3°C° 0 mm 2 mps 748 mmHg 83%
    04:00 +3°C° 0 mm 2 mps 748 mmHg 82%
    05:00 +3°C° 0 mm 2 mps 748 mmHg 82%
    06:00 +4°C° 0 mm 2 mps 748 mmHg 79%
    07:00 +3°C° 0 mm 3 mps 748 mmHg 77%
    08:00 +4°C° 0 mm 3 mps 748 mmHg 74%
    09:00 +7°C° 0 mm 3 mps 748 mmHg 68%
    10:00 +9°C° 0 mm 3 mps 748 mmHg 63%
    11:00 +12°C° 0 mm 2 mps 749 mmHg 57%
    12:00 +12°C° 0 mm 2 mps 749 mmHg 56%
    13:00 +13°C° 0 mm 2 mps 748 mmHg 54%
    14:00 +14°C° 0 mm 2 mps 748 mmHg 52%
    15:00 +13°C° 0 mm 2 mps 748 mmHg 57%
    16:00 +12°C° 0 mm 2 mps 748 mmHg 63%
    17:00 +12°C° 0 mm 1 mps 748 mmHg 68%
    18:00 +10°C° 0 mm 1 mps 748 mmHg 73%
    19:00 +8°C° 0 mm 1 mps 748 mmHg 77%
    20:00 +7°C° 0 mm 1 mps 748 mmHg 82%
    21:00 +6°C° 0 mm 1 mps 748 mmHg 84%
    22:00 +6°C° 0 mm 1 mps 749 mmHg 87%
    23:00 +6°C° 0 mm 1 mps 749 mmHg 90%

    27 September, Friday

    Time Temperature Precipitation Wind Pressure Humidity
    00:00 +5°C° 0 mm 1 mps 749 mmHg 91%
    01:00 +5°C° 0 mm 1 mps 749 mmHg 92%
    02:00 +5°C° 0 mm 1 mps 749 mmHg 92%
    03:00 +5°C° 0 mm 1 mps 749 mmHg 93%
    04:00 +5°C° 0 mm 1 mps 749 mmHg 93%
    05:00 +4°C° 0 mm 1 mps 749 mmHg 93%
    06:00 +5°C° 0 mm 1 mps 749 mmHg 90%
    07:00 +6°C° 0 mm 1 mps 749 mmHg 87%
    08:00 +7°C° 0 mm 1 mps 749 mmHg 84%
    09:00 +9°C° 0 mm 1 mps 749 mmHg 77%
    10:00 +11°C° 0 mm 1 mps 749 mmHg 71%
    11:00 +13°C° 0 mm 1 mps 750 mmHg 64%
    12:00 +14°C° 0 mm 1 mps 749 mmHg 61%
    13:00 +15°C° 0 mm 1 mps 749 mmHg 59%
    14:00 +15°C° 0 mm 1 mps 749 mmHg 56%
    15:00 +14°C° 0 mm 1 mps 749 mmHg 61%
    16:00 +14°C° 0 mm 1 mps 749 mmHg 66%
    17:00 +13°C° 0 mm 1 mps 749 mmHg 70%
    18:00 +11°C° 0 mm 1 mps 749 mmHg 75%
    19:00 +10°C° 0 mm 1 mps 749 mmHg 80%
    20:00 +8°C° 0 mm 1 mps 749 mmHg 85%
    21:00 +8°C° 0 mm 1 mps 749 mmHg 87%
    22:00 +7°C° 0 mm 2 mps 749 mmHg 89%
    23:00 +6°C° 0 mm 2 mps 749 mmHg 91%

    28 September, Saturday

    Time Temperature Precipitation Wind Pressure Humidity
    00:00 +6°C° 0 mm 2 mps 749 mmHg 92%
    01:00 +6°C° 0 mm 2 mps 749 mmHg 93%
    02:00 +6°C° 0 mm 2 mps 749 mmHg 94%
    03:00 +6°C° 0 mm 2 mps 749 mmHg 95%
    04:00 +6°C° 0 mm 2 mps 749 mmHg 96%
    05:00 +7°C° 0 mm 2 mps 748 mmHg 96%
    06:00 +8°C° 0 mm 2 mps 748 mmHg 94%
    07:00 +9°C° 0 mm 3 mps 748 mmHg 92%
    08:00 +10°C° 0 mm 3 mps 748 mmHg 90%
    09:00 +11°C° 0 mm 3 mps 748 mmHg 83%
    10:00 +13°C° 0 mm 4 mps 748 mmHg 76%
    11:00 +14°C° 0 mm 4 mps 748 mmHg 70%
    12:00 +14°C° 0 mm 5 mps 747 mmHg 69%
    13:00 +15°C° 0 mm 5 mps 747 mmHg 69%
    14:00 +15°C° 0 mm 5 mps 746 mmHg 68%
    15:00 +14°C° 0.1 mm 5 mps 746 mmHg 73%
    16:00 +13°C° 0.1 mm 4 mps 745 mmHg 79%
    17:00 +12°C° 0.1 mm 4 mps 745 mmHg 84%
    18:00 +12°C° 0.2 mm 4 mps 744 mmHg 87%
    19:00 +12°C° 0.2 mm 4 mps 744 mmHg 90%
    20:00 +11°C° 0.2 mm 4 mps 744 mmHg 93%
    21:00 +12°C° 0.3 mm 4 mps 743 mmHg 94%
    22:00 +12°C° 0.3 mm 3 mps 743 mmHg 95%
    23:00 +12°C° 0.3 mm 3 mps 743 mmHg 96%
    Show more